When you browse on this site, cookies collect data to enhance your experience and personalize the content and advertising you see.
Visit our Privacy Policy to learn more. By continuing to use the site, you agree to this use of cookies and data.
  • în România
  • Lista ţărilor
  • Pe 7 zile
  • Temperatura apei
  • Hartă satelitară
  • Meteo pe hartă
  • Widget-uri
  • user-avatar
    Intrare

    Meteo pe oră la Thimphu

    Astăzi, 18 Decembrie, Marţi

    Timp Temperatura Precipitaţii Vânt Presiune Umiditate
    00:00 +3°C° 0 mm 1 m/s 525 mmHg 77%
    01:00 +3°C° 0.6 mm 1 m/s 524 mmHg 79%
    02:00 +3°C° 0.6 mm 1 m/s 524 mmHg 81%
    03:00 +3°C° 0.6 mm 1 m/s 523 mmHg 83%
    04:00 +3°C° 1.1 mm 1 m/s 523 mmHg 85%
    05:00 +2°C° 1.1 mm 1 m/s 523 mmHg 88%
    06:00 +2°C° 0 mm 1 m/s 523 mmHg 90%
    07:00 +3°C° 2.1 mm 1 m/s 523 mmHg 91%
    08:00 +3°C° 2.1 mm 1 m/s 523 mmHg 91%
    09:00 +3°C° 2.1 mm 1 m/s 523 mmHg 92%
    10:00 +3°C° 1.9 mm 1 m/s 523 mmHg 92%
    11:00 +4°C° 1.9 mm 1 m/s 523 mmHg 93%
    12:00 +4°C° 1.9 mm 1 m/s 522 mmHg 93%
    13:00 +4°C° 0.9 mm 1 m/s 522 mmHg 94%
    14:00 +3°C° 0.9 mm 2 m/s 522 mmHg 94%
    15:00 +3°C° 0.9 mm 2 m/s 521 mmHg 94%
    16:00 +3°C° 0.4 mm 2 m/s 521 mmHg 94%
    17:00 +3°C° 0.4 mm 1 m/s 521 mmHg 95%
    18:00 +3°C° 0.4 mm 1 m/s 521 mmHg 95%
    19:00 +2°C° 0.1 mm 1 m/s 521 mmHg 95%
    20:00 +2°C° 0.1 mm 1 m/s 520 mmHg 95%
    21:00 +1°C° 0.1 mm 1 m/s 520 mmHg 94%
    22:00 +1°C° 0 mm 1 m/s 520 mmHg 92%
    23:00 -2°C° 0 mm 2 m/s 520 mmHg 91%

    Mâine, 19 Decembrie, Miercuri

    Timp Temperatura Precipitaţii Vânt Presiune Umiditate
    00:00 -3°C° 0 mm 2 m/s 520 mmHg 89%
    01:00 -3°C° 0 mm 2 m/s 520 mmHg 87%
    02:00 -3°C° 0 mm 2 m/s 520 mmHg 85%
    03:00 -4°C° 0 mm 3 m/s 520 mmHg 83%
    04:00 -4°C° 0 mm 3 m/s 520 mmHg 81%
    05:00 -5°C° 0 mm 3 m/s 521 mmHg 79%
    06:00 -5°C° 0 mm 3 m/s 521 mmHg 77%
    07:00 -2°C° 0 mm 3 m/s 522 mmHg 72%
    08:00 -1°C° 0 mm 3 m/s 524 mmHg 68%
    09:00 +1°C° 0 mm 3 m/s 526 mmHg 64%
    10:00 +3°C° 0 mm 3 m/s 527 mmHg 62%
    11:00 +6°C° 0 mm 2 m/s 528 mmHg 59%
    12:00 +8°C° 0 mm 2 m/s 529 mmHg 57%
    13:00 +8°C° 0 mm 2 m/s 528 mmHg 59%
    14:00 +7°C° 0 mm 2 m/s 527 mmHg 61%
    15:00 +7°C° 0 mm 2 m/s 527 mmHg 64%
    16:00 +4°C° 0 mm 2 m/s 526 mmHg 66%
    17:00 +1°C° 0 mm 2 m/s 524 mmHg 68%
    18:00 -4°C° 0 mm 3 m/s 523 mmHg 70%
    19:00 -4°C° 0 mm 3 m/s 523 mmHg 66%
    20:00 -4°C° 0 mm 3 m/s 523 mmHg 62%
    21:00 -5°C° 0 mm 3 m/s 523 mmHg 58%
    22:00 -5°C° 0 mm 3 m/s 523 mmHg 57%
    23:00 -5°C° 0 mm 3 m/s 522 mmHg 56%

    Poimâine, 20 Decembrie, Joi

    Timp Temperatura Precipitaţii Vânt Presiune Umiditate
    00:00 -5°C° 0 mm 3 m/s 522 mmHg 55%
    01:00 -5°C° 0 mm 3 m/s 522 mmHg 55%
    02:00 -5°C° 0 mm 3 m/s 522 mmHg 55%
    03:00 -5°C° 0 mm 3 m/s 521 mmHg 55%
    04:00 -6°C° 0 mm 3 m/s 521 mmHg 55%
    05:00 -6°C° 0 mm 3 m/s 521 mmHg 55%
    06:00 -6°C° 0 mm 3 m/s 521 mmHg 54%
    07:00 -2°C° 0 mm 2 m/s 523 mmHg 54%
    08:00 +1°C° 0 mm 2 m/s 525 mmHg 53%
    09:00 +5°C° 0 mm 1 m/s 527 mmHg 52%
    10:00 +6°C° 0 mm 1 m/s 527 mmHg 52%
    11:00 +6°C° 0 mm 2 m/s 527 mmHg 51%
    12:00 +8°C° 0 mm 2 m/s 528 mmHg 51%
    13:00 +7°C° 0 mm 2 m/s 527 mmHg 55%
    14:00 +7°C° 0 mm 2 m/s 526 mmHg 60%
    15:00 +7°C° 0 mm 2 m/s 525 mmHg 65%
    16:00 +4°C° 0 mm 2 m/s 524 mmHg 71%
    17:00 +2°C° 0 mm 2 m/s 523 mmHg 77%
    18:00 -2°C° 0 mm 2 m/s 522 mmHg 83%
    19:00 -2°C° 0 mm 2 m/s 522 mmHg 81%
    20:00 -2°C° 0 mm 2 m/s 522 mmHg 79%
    21:00 -3°C° 0 mm 2 m/s 522 mmHg 77%
    22:00 -3°C° 0 mm 2 m/s 521 mmHg 76%
    23:00 -3°C° 0 mm 2 m/s 521 mmHg 76%

    21 Decembrie, Vineri

    Timp Temperatura Precipitaţii Vânt Presiune Umiditate
    00:00 -4°C° 0 mm 2 m/s 521 mmHg 75%
    01:00 -4°C° 0 mm 2 m/s 520 mmHg 74%
    02:00 -4°C° 0 mm 2 m/s 520 mmHg 72%
    03:00 -4°C° 0 mm 2 m/s 520 mmHg 71%
    04:00 -5°C° 0 mm 2 m/s 519 mmHg 69%
    05:00 -5°C° 0 mm 2 m/s 519 mmHg 67%
    06:00 -5°C° 0 mm 2 m/s 519 mmHg 65%
    07:00 -3°C° 0 mm 2 m/s 521 mmHg 61%
    08:00 +2°C° 0 mm 1 m/s 523 mmHg 58%
    09:00 +4°C° 0 mm 1 m/s 525 mmHg 54%
    10:00 +6°C° 0 mm 1 m/s 525 mmHg 53%
    11:00 +7°C° 0 mm 1 m/s 526 mmHg 52%
    12:00 +7°C° 0 mm 2 m/s 526 mmHg 51%
    13:00 +7°C° 0 mm 2 m/s 525 mmHg 55%
    14:00 +6°C° 0 mm 2 m/s 525 mmHg 59%
    15:00 +6°C° 0 mm 2 m/s 524 mmHg 63%
    16:00 +4°C° 0 mm 1 m/s 523 mmHg 70%
    17:00 +2°C° 0 mm 1 m/s 522 mmHg 77%
    18:00 -1°C° 0 mm 1 m/s 521 mmHg 84%
    19:00 -3°C° 0 mm 2 m/s 521 mmHg 80%
    20:00 -3°C° 0 mm 2 m/s 521 mmHg 76%
    21:00 -4°C° 0 mm 2 m/s 521 mmHg 71%
    22:00 -4°C° 0 mm 2 m/s 521 mmHg 69%
    23:00 -4°C° 0 mm 2 m/s 521 mmHg 66%

    22 Decembrie, Sâmbătă

    Timp Temperatura Precipitaţii Vânt Presiune Umiditate
    00:00 -4°C° 0 mm 2 m/s 521 mmHg 64%
    01:00 -5°C° 0 mm 3 m/s 520 mmHg 62%
    02:00 -6°C° 0 mm 3 m/s 520 mmHg 60%
    03:00 -6°C° 0 mm 3 m/s 520 mmHg 58%
    04:00 -6°C° 0 mm 3 m/s 520 mmHg 56%
    05:00 -6°C° 0 mm 3 m/s 520 mmHg 55%
    06:00 -7°C° 0 mm 3 m/s 520 mmHg 54%
    07:00 -3°C° 0 mm 2 m/s 522 mmHg 51%
    08:00 +1°C° 0 mm 2 m/s 524 mmHg 49%
    09:00 +4°C° 0 mm 1 m/s 526 mmHg 47%
    10:00 +6°C° 0 mm 1 m/s 526 mmHg 46%
    11:00 +7°C° 0 mm 1 m/s 527 mmHg 46%
    12:00 +8°C° 0 mm 1 m/s 527 mmHg 45%
    13:00 +8°C° 0 mm 1 m/s 526 mmHg 50%
    14:00 +6°C° 0 mm 2 m/s 526 mmHg 55%
    15:00 +6°C° 0 mm 2 m/s 525 mmHg 60%
    16:00 +4°C° 0 mm 2 m/s 524 mmHg 66%
    17:00 +2°C° 0 mm 1 m/s 523 mmHg 73%
    18:00 0°C° 0 mm 1 m/s 522 mmHg 80%
    19:00 -2°C° 0 mm 2 m/s 522 mmHg 76%
    20:00 -2°C° 0 mm 2 m/s 522 mmHg 72%
    21:00 -3°C° 0 mm 2 m/s 523 mmHg 68%
    22:00 -3°C° 0 mm 2 m/s 522 mmHg 67%
    23:00 -3°C° 0 mm 2 m/s 522 mmHg 65%

    23 Decembrie, Duminică

    Timp Temperatura Precipitaţii Vânt Presiune Umiditate
    00:00 -3°C° 0 mm 2 m/s 522 mmHg 63%
    01:00 -3°C° 0 mm 2 m/s 522 mmHg 61%
    02:00 -4°C° 0 mm 3 m/s 521 mmHg 59%
    03:00 -5°C° 0 mm 3 m/s 521 mmHg 58%
    04:00 -5°C° 0 mm 3 m/s 521 mmHg 56%
    05:00 -5°C° 0 mm 3 m/s 521 mmHg 55%
    06:00 -5°C° 0 mm 3 m/s 521 mmHg 53%
    07:00 -1°C° 0 mm 2 m/s 523 mmHg 50%
    08:00 +3°C° 0 mm 1 m/s 525 mmHg 48%
    09:00 +6°C° 0 mm 1 m/s 526 mmHg 45%
    10:00 +7°C° 0 mm 1 m/s 527 mmHg 45%
    11:00 +7°C° 0 mm 2 m/s 527 mmHg 45%
    12:00 +8°C° 0 mm 2 m/s 527 mmHg 46%
    13:00 +8°C° 0 mm 2 m/s 527 mmHg 49%
    14:00 +7°C° 0 mm 2 m/s 526 mmHg 53%
    15:00 +7°C° 0 mm 2 m/s 525 mmHg 57%
    16:00 +5°C° 0 mm 2 m/s 524 mmHg 64%
    17:00 +2°C° 0 mm 2 m/s 523 mmHg 72%
    18:00 -1°C° 0 mm 2 m/s 522 mmHg 80%
    19:00 -2°C° 0 mm 2 m/s 522 mmHg 78%
    20:00 -2°C° 0 mm 2 m/s 522 mmHg 76%
    21:00 -2°C° 0 mm 2 m/s 522 mmHg 74%
    22:00 -3°C° 0 mm 2 m/s 521 mmHg 72%
    23:00 -3°C° 0 mm 2 m/s 521 mmHg 70%
    Arată mai mult